Regional Weather Roundup
Issued by NWS Cleveland, OH

Home | Current Version | Previous Version | Graphics & Text | Print | Product List | Glossary On
Versions: 1 2 3 4 5 6 7 8 9 10 11 12 13 14 15 16 17 18 19 20 21 22 23 24 25 26 27 28 29 30 31 32 33 34 35 36 37 38 39 40 41 42 43 44 45 46 47 48 49 50
000
ASUS41 KCLE 171010
RWRCLE
OHIO REGIONAL WEATHER ROUNDUP
NATIONAL WEATHER SERVICE CLEVELAND, OH
500 AM EST TUE JAN 17 2017

NOTE: "FAIR" INDICATES FEW OR NO CLOUDS BELOW 12,000 FEET WITH NO
SIGNIFICANT WEATHER AND/OR OBSTRUCTIONS TO VISIBILITY.

OHZ001>008-015>018-024>027-034-035-043-044-171100-
   NORTHWEST OHIO

CITY           SKY/WX    TMP DP  RH WIND       PRES   REMARKS
DEFIANCE       FOG       39  37  92 E6        29.84F VSB 1/4
FINDLAY        CLOUDY    50  47  89 S18       29.86F
TOLEDO EXPRESS FOG       36  36 100 E6        29.86F VSB 1/4
TOLEDO EXEC    FOG       38  38 100 E5        29.88F VSB 1/4
LIMA           CLOUDY    51  51 100 S12       29.86S
$$

OHZ009>014-019>023-028>033-038-089-171100-
   NORTHEAST OHIO

CITY           SKY/WX    TMP DP  RH WIND       PRES   REMARKS
CLE-HOPKINS    LGT RAIN  45  42  89 SE8       29.97F FOG
CLE-LAKEFRONT  LGT RAIN  45  42  89 SE17      29.94F
CUY CO. ARPT   NOT AVBL
LORAIN-ELYRIA  LGT RAIN  45  42  89 S13       29.92F
ASHTABULA      LGT RAIN  40  40 100 SE9       30.01F FOG
AKRON-CANTON   LGT RAIN  44  41  89 SE7       29.99F FOG
WOOSTER        RAIN      40  39  97 SE6       29.98F VSB 1/2
MANSFIELD      LGT RAIN  50  49  96 SE14      29.93F
YOUNGSTOWN     LGT RAIN  41  39  93 SE10      30.01F FOG
$$

OHZ042-051>053-060>062-070>072-077>081-171100-
  SOUTHWEST OHIO

CITY           SKY/WX    TMP DP  RH WIND       PRES   REMARKS
CINC-COVINGTON LGT RAIN  57  56  96 S15       29.91S
CINC-LUNKEN    RAIN      58  57  97 S16       29.93F FOG
HAMILTON       CLOUDY    58  57  97 S8        29.92F
DAYTON         LGT RAIN  55  54  96 S13       29.89F
WRIGHT-PAT AFB LGT RAIN  56  56 100 S9        29.89F
DAYTON GENERAL CLOUDY    56  55  97 S9        29.90F
WILMINGTON     RAIN      55  54  96 S21       29.91F FOG
$$

OHZ036-037-039>041-045>050-054>059-063>069-073>076-082>088-171100-
  CENTRAL AND SOUTHEAST OHIO

CITY           SKY/WX    TMP DP  RH WIND       PRES   REMARKS
COLUMBUS       CLOUDY    54  53  97 S10       29.95F
OSU AIRPORT    CLOUDY    51  51 100 S10       29.93F
BOLTON FIELD   CLOUDY    50  50 100 S9        29.95S
RICKENBACK AFB   N/A     53  52  97 S14       29.94F
NEWARK         CLOUDY    44  42  93 CALM      29.95F FOG
MARION         CLOUDY    51  49  92 S13       29.92F
LANCASTER      CLOUDY    52  50  93 SE8       29.97F
ZANESVILLE     CLOUDY    51  48  89 S8        29.99F
NEW PHILLY     NOT AVBL
$$




USA.gov is the U.S. government's official web portal to all federal, state and local government web resources and services.